Вернуться в каталог

STARLINK-30540

АктивенСвязьVLEO
NORAD 58002·PAYLOAD·🇺🇸 United States

Запущен Oct 5, 2023 с Cape Canaveral Space Force Station

Loading…

Ближайшие Пролёты (ближайшие 24 часа)

TLE

СвежийSource: CelesTrak SupGP

Эпоха: Sep 15, 2026, 03:11 UTC

1 58002C 23153M   26258.13312500 -.00041007  00000+0 -14852-2 0  2580
2 58002  43.0028  76.9461 0001508 269.6303  25.3768 15.27599208    10

Отслеживайте STARLINK-30540 в реальном времени с AllMySat

Download on the App Store